Saint Bonnet de Bellac- Haute Vienne - France
Donnes mto: mercredi, 20/06/2012
Date Horaire Temp. E. Hum. E. P.atmo. Pluie Vent Direction Direction Ensoleilleme Solaire P. de rose Temp au vent Rafales
20/06/2012 00:00 16,9 C 91 % 1014,7 hPa 0,0 mm 0,0 km/h (0 Bft) E 90 0 min 0 W/m 15,4 C 16,9 C 0,0 km/h (0 Bft)
20/06/2012 00:10 16,9 C 91 % 1014,7 hPa 0,0 mm 0,0 km/h (0 Bft) E 90 0 min 0 W/m 15,4 C 16,9 C 0,0 km/h (0 Bft)
20/06/2012 00:20 16,8 C 91 % 1014,8 hPa 0,0 mm 0,0 km/h (0 Bft) E 90 0 min 0 W/m 15,3 C 16,8 C 0,0 km/h (0 Bft)
20/06/2012 00:30 16,8 C 91 % 1014,9 hPa 0,0 mm 0,0 km/h (0 Bft) E 90 0 min 0 W/m 15,3 C 16,8 C 0,0 km/h (0 Bft)
20/06/2012 00:40 16,8 C 91 % 1014,9 hPa 0,0 mm 0,0 km/h (0 Bft) E 90 0 min 0 W/m 15,3 C 16,8 C 0,0 km/h (0 Bft)
20/06/2012 00:50 16,8 C 91 % 1014,8 hPa 0,0 mm 0,0 km/h (0 Bft) E 90 0 min 0 W/m 15,3 C 16,8 C 0,0 km/h (0 Bft)
20/06/2012 01:00 16,8 C 91 % 1014,8 hPa 0,0 mm 0,0 km/h (0 Bft) E 90 0 min 0 W/m 15,3 C 16,8 C 0,0 km/h (0 Bft)
20/06/2012 01:10 16,8 C 92 % 1014,8 hPa 0,0 mm 0,0 km/h (0 Bft) E 90 0 min 0 W/m 15,5 C 16,8 C 0,0 km/h (0 Bft)
20/06/2012 01:20 16,8 C 92 % 1014,9 hPa 0,0 mm 0,0 km/h (0 Bft) E 90 0 min 0 W/m 15,5 C 16,8 C 0,0 km/h (0 Bft)
20/06/2012 01:30 16,8 C 92 % 1014,8 hPa 0,0 mm 0,0 km/h (0 Bft) E 90 0 min 0 W/m 15,5 C 16,8 C 0,0 km/h (0 Bft)
20/06/2012 01:40 16,8 C 92 % 1014,7 hPa 0,0 mm 0,0 km/h (0 Bft) E 90 0 min 0 W/m 15,5 C 16,8 C 0,0 km/h (0 Bft)
20/06/2012 01:50 16,8 C 92 % 1014,6 hPa 0,0 mm 0,0 km/h (0 Bft) E 90 0 min 0 W/m 15,5 C 16,8 C 0,0 km/h (0 Bft)
20/06/2012 02:00 16,6 C 92 % 1014,6 hPa 0,0 mm 0,0 km/h (0 Bft) E 90 0 min 0 W/m 15,3 C 16,6 C 0,0 km/h (0 Bft)
20/06/2012 02:10 16,5 C 92 % 1014,6 hPa 0,0 mm 0,0 km/h (0 Bft) E 90 0 min 0 W/m 15,2 C 16,5 C 0,0 km/h (0 Bft)
20/06/2012 02:20 16,4 C 92 % 1014,4 hPa 0,0 mm 0,0 km/h (0 Bft) E 90 0 min 0 W/m 15,1 C 16,4 C 0,0 km/h (0 Bft)
20/06/2012 02:30 16,2 C 92 % 1014,3 hPa 0,0 mm 0,0 km/h (0 Bft) E 90 0 min 0 W/m 14,9 C 16,2 C 0,0 km/h (0 Bft)
20/06/2012 02:40 16,1 C 92 % 1014,4 hPa 0,0 mm 0,0 km/h (0 Bft) E 90 0 min 0 W/m 14,8 C 16,1 C 0,0 km/h (0 Bft)
20/06/2012 02:50 16,0 C 92 % 1014,4 hPa 0,0 mm 0,0 km/h (0 Bft) E 90 0 min 0 W/m 14,7 C 16,0 C 0,0 km/h (0 Bft)
20/06/2012 03:02 16,0 C 92 % 1014,4 hPa 0,0 mm 0,0 km/h (0 Bft) E 90 0 min 0 W/m 14,7 C 16,0 C 0,0 km/h (0 Bft)
20/06/2012 03:10 16,1 C 92 % 1014,4 hPa 0,0 mm 0,0 km/h (0 Bft) E 90 0 min 0 W/m 14,8 C 16,1 C 0,0 km/h (0 Bft)
20/06/2012 03:20 16,2 C 92 % 1014,4 hPa 0,0 mm 0,0 km/h (0 Bft) E 90 0 min 0 W/m 14,9 C 16,2 C 0,0 km/h (0 Bft)
20/06/2012 03:30 16,3 C 92 % 1014,4 hPa 0,0 mm 0,0 km/h (0 Bft) E 90 0 min 0 W/m 15,0 C 16,3 C 0,0 km/h (0 Bft)
20/06/2012 03:40 16,3 C 92 % 1014,4 hPa 0,0 mm 0,0 km/h (0 Bft) E 90 0 min 0 W/m 15,0 C 16,3 C 0,0 km/h (0 Bft)
20/06/2012 03:50 16,2 C 92 % 1014,4 hPa 0,0 mm 0,0 km/h (0 Bft) E 90 0 min 0 W/m 14,9 C 16,2 C 0,0 km/h (0 Bft)
20/06/2012 04:00 16,2 C 92 % 1014,3 hPa 0,0 mm 0,0 km/h (0 Bft) E 90 0 min 0 W/m 14,9 C 16,2 C 3,2 km/h (1 Bft)
20/06/2012 04:10 16,2 C 92 % 1014,3 hPa 0,0 mm 0,0 km/h (0 Bft) E 90 0 min 0 W/m 14,9 C 16,2 C 0,0 km/h (0 Bft)
20/06/2012 04:20 16,1 C 92 % 1014,4 hPa 0,0 mm 0,0 km/h (0 Bft) E-NE 67 0 min 0 W/m 14,8 C 16,1 C 0,0 km/h (0 Bft)
20/06/2012 04:30 16,1 C 93 % 1014,3 hPa 0,0 mm 0,0 km/h (0 Bft) E-NE 67 0 min 0 W/m 15,0 C 16,1 C 3,2 km/h (1 Bft)
20/06/2012 04:40 16,1 C 93 % 1014,2 hPa 0,0 mm 0,0 km/h (0 Bft) E-NE 67 0 min 0 W/m 15,0 C 16,1 C 0,0 km/h (0 Bft)
20/06/2012 04:50 16,1 C 93 % 1014,1 hPa 0,0 mm 0,0 km/h (0 Bft) E-NE 67 0 min 0 W/m 15,0 C 16,1 C 0,0 km/h (0 Bft)
20/06/2012 05:00 16,0 C 93 % 1014,0 hPa 0,0 mm 0,0 km/h (0 Bft) NE 45 0 min 0 W/m 14,9 C 16,0 C 0,0 km/h (0 Bft)
20/06/2012 05:10 15,9 C 93 % 1013,9 hPa 0,0 mm 0,0 km/h (0 Bft) N-NE 22 0 min 0 W/m 14,8 C 15,9 C 0,0 km/h (0 Bft)
20/06/2012 05:20 15,9 C 93 % 1014,0 hPa 0,0 mm 1,4 km/h (1 Bft) NE 45 0 min 0 W/m 14,8 C 15,9 C 2,9 km/h (1 Bft)
20/06/2012 05:30 15,8 C 93 % 1013,9 hPa 0,0 mm 3,2 km/h (1 Bft) N-NE 22 0 min 0 W/m 14,7 C 15,8 C 4,0 km/h (1 Bft)
20/06/2012 05:40 15,8 C 93 % 1014,0 hPa 0,0 mm 0,4 km/h (0 Bft) N-NE 22 0 min 0 W/m 14,7 C 15,8 C 3,2 km/h (1 Bft)
20/06/2012 05:50 15,7 C 93 % 1014,1 hPa 0,0 mm 0,0 km/h (0 Bft) N-NE 22 0 min 0 W/m 14,6 C 15,7 C 0,0 km/h (0 Bft)
20/06/2012 06:00 15,6 C 93 % 1013,9 hPa 0,0 mm 0,0 km/h (0 Bft) NE 45 0 min 0 W/m 14,5 C 15,6 C 3,6 km/h (1 Bft)
20/06/2012 06:10 15,6 C 93 % 1013,9 hPa 0,0 mm 0,0 km/h (0 Bft) NE 45 0 min 0 W/m 14,5 C 15,6 C 0,0 km/h (0 Bft)
20/06/2012 06:20 15,5 C 93 % 1013,8 hPa 0,0 mm 0,0 km/h (0 Bft) NE 45 0 min 0 W/m 14,4 C 15,5 C 0,0 km/h (0 Bft)
20/06/2012 06:30 15,5 C 93 % 1013,9 hPa 0,0 mm 0,0 km/h (0 Bft) NE 45 0 min 0 W/m 14,4 C 15,5 C 0,0 km/h (0 Bft)
20/06/2012 06:40 15,4 C 93 % 1014,0 hPa 0,0 mm 0,0 km/h (0 Bft) NE 45 0 min 0 W/m 14,3 C 15,4 C 2,9 km/h (1 Bft)
20/06/2012 06:50 15,4 C 93 % 1014,1 hPa 0,0 mm 0,0 km/h (0 Bft) NE 45 0 min 0 W/m 14,3 C 15,4 C 0,0 km/h (0 Bft)
20/06/2012 07:00 15,3 C 92 % 1014,2 hPa 0,0 mm 0,0 km/h (0 Bft) NE 45 0 min 0 W/m 14,0 C 15,3 C 0,0 km/h (0 Bft)
20/06/2012 07:10 15,3 C 93 % 1014,2 hPa 0,0 mm 0,0 km/h (0 Bft) NE 45 0 min 0 W/m 14,2 C 15,3 C 0,0 km/h (0 Bft)
20/06/2012 07:20 15,3 C 93 % 1014,1 hPa 0,0 mm 1,4 km/h (1 Bft) NE 45 0 min 0 W/m 14,2 C 15,3 C 2,9 km/h (1 Bft)
20/06/2012 07:30 15,2 C 93 % 1014,0 hPa 0,0 mm 3,6 km/h (1 Bft) E-NE 67 0 min 0 W/m 14,1 C 15,2 C 3,6 km/h (1 Bft)
20/06/2012 07:40 15,2 C 93 % 1014,2 hPa 0,0 mm 0,0 km/h (0 Bft) NE 45 0 min 0 W/m 14,1 C 15,2 C 0,0 km/h (0 Bft)
20/06/2012 07:50 15,3 C 93 % 1014,2 hPa 0,0 mm 0,0 km/h (0 Bft) E-NE 67 0 min 0 W/m 14,2 C 15,3 C 3,6 km/h (1 Bft)
20/06/2012 08:00 15,4 C 93 % 1014,3 hPa 0,0 mm 0,7 km/h (0 Bft) NE 45 0 min 0 W/m 14,3 C 15,4 C 0,7 km/h (0 Bft)
20/06/2012 08:10 15,4 C 93 % 1014,3 hPa 0,0 mm 0,4 km/h (0 Bft) E-NE 67 0 min 0 W/m 14,3 C 15,4 C 2,9 km/h (1 Bft)
20/06/2012 08:20 15,4 C 93 % 1014,3 hPa 0,0 mm 1,8 km/h (1 Bft) E-NE 67 0 min 0 W/m 14,3 C 15,4 C 4,3 km/h (1 Bft)
20/06/2012 08:30 15,5 C 93 % 1014,3 hPa 0,0 mm 1,4 km/h (1 Bft) E-NE 67 0 min 0 W/m 14,4 C 15,5 C 3,6 km/h (1 Bft)
20/06/2012 08:40 15,7 C 93 % 1014,4 hPa 0,0 mm 1,8 km/h (1 Bft) E-NE 67 0 min 0 W/m 14,6 C 15,7 C 3,2 km/h (1 Bft)
20/06/2012 08:50 15,9 C 93 % 1014,4 hPa 0,0 mm 0,7 km/h (0 Bft) NE 45 0 min 0 W/m 14,8 C 15,9 C 3,6 km/h (1 Bft)
20/06/2012 09:00 16,2 C 93 % 1014,4 hPa 0,0 mm 3,2 km/h (1 Bft) E-NE 67 0 min 0 W/m 15,1 C 16,2 C 3,2 km/h (1 Bft)
20/06/2012 09:10 16,5 C 93 % 1014,4 hPa 0,0 mm 4,7 km/h (1 Bft) E-NE 67 0 min 0 W/m 15,4 C 16,5 C 4,7 km/h (1 Bft)
20/06/2012 09:20 16,7 C 93 % 1014,3 hPa 0,0 mm 2,2 km/h (1 Bft) E-NE 67 0 min 0 W/m 15,6 C 16,7 C 7,2 km/h (2 Bft)
20/06/2012 09:30 17,0 C 93 % 1014,2 hPa 0,0 mm 0,7 km/h (0 Bft) E-NE 67 0 min 0 W/m 15,9 C 17,0 C 4,3 km/h (1 Bft)
20/06/2012 09:40 17,2 C 92 % 1014,1 hPa 0,0 mm 0,0 km/h (0 Bft) E-NE 67 0 min 0 W/m 15,9 C 17,2 C 0,0 km/h (0 Bft)
20/06/2012 09:50 17,2 C 92 % 1014,0 hPa 0,0 mm 0,0 km/h (0 Bft) E-NE 67 0 min 0 W/m 15,9 C 17,2 C 2,9 km/h (1 Bft)
20/06/2012 10:00 17,4 C 92 % 1014,2 hPa 0,0 mm 0,0 km/h (0 Bft) NE 45 0 min 0 W/m 16,1 C 17,4 C 0,0 km/h (0 Bft)
20/06/2012 10:10 17,8 C 92 % 1014,2 hPa 0,0 mm 2,9 km/h (1 Bft) N 360 0 min 0 W/m 16,5 C 17,8 C 3,2 km/h (1 Bft)
20/06/2012 10:20 18,2 C 91 % 1014,2 hPa 0,0 mm 2,5 km/h (1 Bft) NE 45 0 min 0 W/m 16,7 C 18,2 C 4,7 km/h (1 Bft)
20/06/2012 10:30 18,6 C 90 % 1014,0 hPa 0,0 mm 4,0 km/h (1 Bft) N 360 0 min 0 W/m 16,9 C 18,6 C 7,2 km/h (2 Bft)
20/06/2012 10:40 19,3 C 90 % 1014,0 hPa 0,0 mm 3,2 km/h (1 Bft) N-NE 22 0 min 0 W/m 17,6 C 19,3 C 3,6 km/h (1 Bft)
20/06/2012 10:50 20,0 C 87 % 1014,0 hPa 0,0 mm 2,9 km/h (1 Bft) N-NE 22 0 min 0 W/m 17,8 C 20,0 C 5,8 km/h (2 Bft)
20/06/2012 11:00 20,5 C 86 % 1013,7 hPa 0,0 mm 1,1 km/h (1 Bft) N-NE 22 0 min 0 W/m 18,1 C 20,5 C 1,1 km/h (1 Bft)
20/06/2012 11:10 21,2 C 84 % 1013,8 hPa 0,0 mm 4,3 km/h (1 Bft) E-NE 67 0 min 0 W/m 18,4 C 21,2 C 4,3 km/h (1 Bft)
20/06/2012 11:20 21,8 C 82 % 1013,8 hPa 0,0 mm 3,2 km/h (1 Bft) N-NE 22 0 min 0 W/m 18,6 C 21,8 C 5,0 km/h (1 Bft)
20/06/2012 11:30 22,3 C 81 % 1013,8 hPa 0,0 mm 2,5 km/h (1 Bft) E-SE 112 0 min 0 W/m 18,9 C 22,3 C 4,3 km/h (1 Bft)
20/06/2012 11:40 22,6 C 80 % 1013,8 hPa 0,0 mm 0,0 km/h (0 Bft) N-NE 22 0 min 0 W/m 19,0 C 22,6 C 0,0 km/h (0 Bft)
20/06/2012 11:50 23,2 C 78 % 1014,0 hPa 0,0 mm 3,2 km/h (1 Bft) NE 45 0 min 0 W/m 19,1 C 23,2 C 8,3 km/h (2 Bft)
20/06/2012 12:00 23,2 C 77 % 1013,8 hPa 0,0 mm 3,2 km/h (1 Bft) N 360 0 min 0 W/m 18,9 C 23,2 C 4,3 km/h (1 Bft)
20/06/2012 12:10 23,8 C 77 % 1013,8 hPa 0,0 mm 1,1 km/h (1 Bft) NE 45 0 min 0 W/m 19,5 C 23,8 C 1,1 km/h (1 Bft)
20/06/2012 12:20 24,1 C 75 % 1013,8 hPa 0,0 mm 2,5 km/h (1 Bft) NE 45 0 min 0 W/m 19,4 C 24,1 C 4,0 km/h (1 Bft)
20/06/2012 12:30 24,3 C 75 % 1013,7 hPa 0,0 mm 2,9 km/h (1 Bft) NE 45 0 min 0 W/m 19,6 C 24,3 C 4,0 km/h (1 Bft)
20/06/2012 12:40 24,6 C 74 % 1013,5 hPa 0,0 mm 5,8 km/h (2 Bft) NE 45 0 min 0 W/m 19,6 C 24,6 C 9,7 km/h (2 Bft)
20/06/2012 12:50 24,8 C 73 % 1013,4 hPa 0,0 mm 0,4 km/h (0 Bft) NE 45 0 min 0 W/m 19,6 C 24,8 C 4,0 km/h (1 Bft)
20/06/2012 13:00 24,7 C 71 % 1013,2 hPa 0,0 mm 1,8 km/h (1 Bft) NE 45 0 min 0 W/m 19,1 C 24,7 C 1,8 km/h (1 Bft)
20/06/2012 13:10 25,1 C 72 % 1013,2 hPa 0,0 mm 2,9 km/h (1 Bft) N-NE 22 0 min 0 W/m 19,7 C 25,1 C 4,3 km/h (1 Bft)
20/06/2012 13:20 25,6 C 72 % 1013,1 hPa 0,0 mm 2,2 km/h (1 Bft) E-NE 67 0 min 0 W/m 20,2 C 25,6 C 4,0 km/h (1 Bft)
20/06/2012 13:30 26,1 C 70 % 1013,2 hPa 0,0 mm 4,0 km/h (1 Bft) E-NE 67 0 min 0 W/m 20,2 C 26,1 C 4,7 km/h (1 Bft)
20/06/2012 13:40 26,3 C 68 % 1013,1 hPa 0,0 mm 0,0 km/h (0 Bft) NE 45 0 min 0 W/m 19,9 C 26,3 C 0,0 km/h (0 Bft)
20/06/2012 13:50 26,4 C 69 % 1013,3 hPa 0,0 mm 1,4 km/h (1 Bft) NE 45 0 min 0 W/m 20,2 C 26,4 C 1,4 km/h (1 Bft)
20/06/2012 14:00 26,3 C 68 % 1013,0 hPa 0,0 mm 0,0 km/h (0 Bft) E-NE 67 0 min 0 W/m 19,9 C 26,3 C 3,6 km/h (1 Bft)
20/06/2012 14:10 26,4 C 67 % 1012,7 hPa 0,0 mm 2,5 km/h (1 Bft) E-NE 67 0 min 0 W/m 19,8 C 26,4 C 2,5 km/h (1 Bft)
20/06/2012 14:20 26,4 C 68 % 1012,8 hPa 0,0 mm 1,8 km/h (1 Bft) N-NO 337 0 min 0 W/m 20,0 C 26,4 C 4,0 km/h (1 Bft)
20/06/2012 14:30 26,6 C 68 % 1012,9 hPa 0,0 mm 1,8 km/h (1 Bft) N 360 0 min 0 W/m 20,2 C 26,6 C 4,3 km/h (1 Bft)
20/06/2012 14:40 26,8 C 68 % 1013,0 hPa 0,0 mm 2,5 km/h (1 Bft) NE 45 0 min 0 W/m 20,4 C 26,8 C 4,0 km/h (1 Bft)
20/06/2012 14:50 26,8 C 68 % 1012,8 hPa 0,0 mm 0,0 km/h (0 Bft) NO 315 0 min 0 W/m 20,4 C 26,8 C 0,0 km/h (0 Bft)
20/06/2012 15:00 26,8 C 68 % 1012,7 hPa 0,0 mm 1,8 km/h (1 Bft) N 360 0 min 0 W/m 20,4 C 26,8 C 4,3 km/h (1 Bft)
20/06/2012 15:10 26,8 C 67 % 1012,5 hPa 0,0 mm 2,2 km/h (1 Bft) N 360 0 min 0 W/m 20,1 C 26,8 C 4,3 km/h (1 Bft)
20/06/2012 15:20 27,1 C 68 % 1012,4 hPa 0,0 mm 5,0 km/h (1 Bft) NO 315 0 min 0 W/m 20,7 C 27,1 C 8,3 km/h (2 Bft)
20/06/2012 15:30 27,1 C 67 % 1012,3 hPa 0,0 mm 4,0 km/h (1 Bft) O-NO 292 0 min 0 W/m 20,4 C 27,1 C 8,6 km/h (2 Bft)
20/06/2012 15:40 27,4 C 68 % 1012,3 hPa 0,0 mm 1,1 km/h (1 Bft) N 360 0 min 0 W/m 21,0 C 27,4 C 1,1 km/h (1 Bft)
20/06/2012 15:50 27,8 C 66 % 1012,2 hPa 0,0 mm 3,2 km/h (1 Bft) N 360 0 min 0 W/m 20,8 C 27,8 C 7,2 km/h (2 Bft)
20/06/2012 16:00 27,9 C 65 % 1011,9 hPa 0,0 mm 2,9 km/h (1 Bft) NE 45 0 min 0 W/m 20,7 C 27,9 C 4,3 km/h (1 Bft)
20/06/2012 16:10 27,8 C 66 % 1011,8 hPa 0,0 mm 2,5 km/h (1 Bft) NE 45 0 min 0 W/m 20,8 C 27,8 C 2,5 km/h (1 Bft)
20/06/2012 16:20 27,6 C 66 % 1011,6 hPa 0,0 mm 2,5 km/h (1 Bft) E-NE 67 0 min 0 W/m 20,7 C 27,6 C 4,3 km/h (1 Bft)
20/06/2012 16:30 27,4 C 66 % 1011,5 hPa 0,0 mm 2,5 km/h (1 Bft) NE 45 0 min 0 W/m 20,5 C 27,4 C 4,3 km/h (1 Bft)
20/06/2012 16:40 27,2 C 66 % 1011,5 hPa 0,0 mm 0,4 km/h (0 Bft) NE 45 0 min 0 W/m 20,3 C 27,2 C 0,4 km/h (0 Bft)
20/06/2012 16:50 27,1 C 65 % 1011,4 hPa 0,0 mm 0,4 km/h (0 Bft) N-NE 22 0 min 0 W/m 19,9 C 27,1 C 3,2 km/h (1 Bft)
20/06/2012 17:00 27,3 C 67 % 1011,4 hPa 0,0 mm 4,3 km/h (1 Bft) N-NE 22 0 min 0 W/m 20,6 C 27,3 C 7,9 km/h (2 Bft)
20/06/2012 17:10 27,7 C 66 % 1011,1 hPa 0,0 mm 3,2 km/h (1 Bft) N 360 0 min 0 W/m 20,8 C 27,7 C 6,8 km/h (2 Bft)
20/06/2012 17:20 27,9 C 65 % 1011,1 hPa 0,0 mm 0,7 km/h (0 Bft) N-NE 22 0 min 0 W/m 20,7 C 27,9 C 3,6 km/h (1 Bft)
20/06/2012 17:30 27,6 C 65 % 1011,1 hPa 0,0 mm 4,0 km/h (1 Bft) N-NE 22 0 min 0 W/m 20,4 C 27,6 C 8,3 km/h (2 Bft)
20/06/2012 17:40 27,5 C 66 % 1011,0 hPa 0,0 mm 5,4 km/h (2 Bft) E-NE 67 0 min 0 W/m 20,6 C 27,5 C 8,6 km/h (2 Bft)
20/06/2012 17:50 27,4 C 65 % 1010,9 hPa 0,0 mm 1,4 km/h (1 Bft) E 90 0 min 0 W/m 20,2 C 27,4 C 3,6 km/h (1 Bft)
20/06/2012 18:00 27,3 C 66 % 1011,0 hPa 0,0 mm 4,0 km/h (1 Bft) NE 45 0 min 0 W/m 20,4 C 27,3 C 6,5 km/h (2 Bft)
20/06/2012 18:10 27,4 C 66 % 1010,8 hPa 0,0 mm 3,2 km/h (1 Bft) E-NE 67 0 min 0 W/m 20,5 C 27,4 C 4,3 km/h (1 Bft)
20/06/2012 18:20 27,3 C 65 % 1010,7 hPa 0,0 mm 2,9 km/h (1 Bft) NE 45 0 min 0 W/m 20,1 C 27,3 C 6,5 km/h (2 Bft)
20/06/2012 18:30 27,3 C 66 % 1010,6 hPa 0,0 mm 3,2 km/h (1 Bft) E-NE 67 0 min 0 W/m 20,4 C 27,3 C 4,0 km/h (1 Bft)
20/06/2012 18:40 27,4 C 66 % 1010,5 hPa 0,0 mm 1,1 km/h (1 Bft) N-NE 22 0 min 0 W/m 20,5 C 27,4 C 1,1 km/h (1 Bft)
20/06/2012 18:50 27,4 C 66 % 1010,4 hPa 0,0 mm 0,7 km/h (0 Bft) NE 45 0 min 0 W/m 20,5 C 27,4 C 3,6 km/h (1 Bft)
20/06/2012 19:00 27,3 C 66 % 1010,5 hPa 0,0 mm 1,1 km/h (1 Bft) N-NE 22 0 min 0 W/m 20,4 C 27,3 C 4,0 km/h (1 Bft)
20/06/2012 19:10 27,3 C 66 % 1010,7 hPa 0,0 mm 0,0 km/h (0 Bft) N-NE 22 0 min 0 W/m 20,4 C 27,3 C 0,0 km/h (0 Bft)
20/06/2012 19:20 27,1 C 67 % 1010,6 hPa 0,0 mm 0,4 km/h (0 Bft) N-NE 22 0 min 0 W/m 20,4 C 27,1 C 3,2 km/h (1 Bft)
20/06/2012 19:30 26,8 C 68 % 1010,6 hPa 0,0 mm 0,0 km/h (0 Bft) N-NE 22 0 min 0 W/m 20,4 C 26,8 C 0,0 km/h (0 Bft)
20/06/2012 19:40 26,6 C 68 % 1010,6 hPa 0,0 mm 0,0 km/h (0 Bft) N-NE 22 0 min 0 W/m 20,2 C 26,6 C 0,0 km/h (0 Bft)
20/06/2012 19:50 26,5 C 69 % 1010,4 hPa 0,0 mm 0,0 km/h (0 Bft) N-NE 22 0 min 0 W/m 20,3 C 26,5 C 0,0 km/h (0 Bft)
20/06/2012 20:00 26,3 C 69 % 1010,4 hPa 0,0 mm 0,0 km/h (0 Bft) N-NE 22 0 min 0 W/m 20,1 C 26,3 C 0,0 km/h (0 Bft)
20/06/2012 20:10 26,1 C 71 % 1010,6 hPa 0,0 mm 0,0 km/h (0 Bft) N-NE 22 0 min 0 W/m 20,4 C 26,1 C 0,0 km/h (0 Bft)
20/06/2012 20:20 25,8 C 72 % 1010,6 hPa 0,0 mm 0,0 km/h (0 Bft) N 360 0 min 0 W/m 20,4 C 25,8 C 0,0 km/h (0 Bft)
20/06/2012 20:30 25,4 C 73 % 1010,5 hPa 0,0 mm 1,4 km/h (1 Bft) N-NE 22 0 min 0 W/m 20,2 C 25,4 C 3,6 km/h (1 Bft)
20/06/2012 20:40 25,1 C 74 % 1010,4 hPa 0,0 mm 0,0 km/h (0 Bft) N-NE 22 0 min 0 W/m 20,1 C 25,1 C 0,0 km/h (0 Bft)
20/06/2012 20:50 24,8 C 74 % 1010,5 hPa 0,0 mm 0,0 km/h (0 Bft) N-NE 22 0 min 0 W/m 19,8 C 24,8 C 0,0 km/h (0 Bft)
20/06/2012 21:00 24,5 C 75 % 1010,5 hPa 0,0 mm 0,0 km/h (0 Bft) N-NE 22 0 min 0 W/m 19,8 C 24,5 C 0,0 km/h (0 Bft)
20/06/2012 21:10 24,3 C 75 % 1010,5 hPa 0,0 mm 0,0 km/h (0 Bft) N-NE 22 0 min 0 W/m 19,6 C 24,3 C 0,0 km/h (0 Bft)
20/06/2012 21:20 24,0 C 77 % 1010,6 hPa 0,0 mm 0,0 km/h (0 Bft) N-NE 22 0 min 0 W/m 19,7 C 24,0 C 0,0 km/h (0 Bft)
20/06/2012 21:30 23,6 C 77 % 1010,5 hPa 0,0 mm 0,0 km/h (0 Bft) N-NE 22 0 min 0 W/m 19,3 C 23,6 C 0,0 km/h (0 Bft)
20/06/2012 21:40 23,3 C 78 % 1010,1 hPa 0,0 mm 0,0 km/h (0 Bft) N-NE 22 0 min 0 W/m 19,2 C 23,3 C 0,0 km/h (0 Bft)
20/06/2012 21:50 23,0 C 78 % 1010,2 hPa 0,0 mm 0,0 km/h (0 Bft) NE 45 0 min 0 W/m 18,9 C 23,0 C 0,0 km/h (0 Bft)
20/06/2012 22:00 22,8 C 79 % 1010,2 hPa 0,0 mm 0,0 km/h (0 Bft) NE 45 0 min 0 W/m 19,0 C 22,8 C 0,0 km/h (0 Bft)
20/06/2012 22:10 22,6 C 79 % 1009,9 hPa 0,0 mm 1,1 km/h (1 Bft) NE 45 0 min 0 W/m 18,8 C 22,6 C 4,3 km/h (1 Bft)
20/06/2012 22:20 22,4 C 80 % 1009,8 hPa 0,0 mm 0,0 km/h (0 Bft) NE 45 0 min 0 W/m 18,8 C 22,4 C 0,0 km/h (0 Bft)
20/06/2012 22:30 22,1 C 80 % 1010,1 hPa 0,0 mm 1,4 km/h (1 Bft) SE 135 0 min 0 W/m 18,5 C 22,1 C 4,3 km/h (1 Bft)
20/06/2012 22:40 22,1 C 81 % 1010,1 hPa 0,0 mm 0,7 km/h (0 Bft) SE 135 0 min 0 W/m 18,7 C 22,1 C 4,0 km/h (1 Bft)
20/06/2012 22:50 21,9 C 81 % 1010,0 hPa 0,0 mm 0,0 km/h (0 Bft) SE 135 0 min 0 W/m 18,5 C 21,9 C 0,0 km/h (0 Bft)
20/06/2012 23:00 21,8 C 82 % 1009,9 hPa 0,0 mm 0,7 km/h (0 Bft) SE 135 0 min 0 W/m 18,6 C 21,8 C 3,2 km/h (1 Bft)
20/06/2012 23:10 21,6 C 82 % 1009,8 hPa 0,0 mm 0,7 km/h (0 Bft) E-NE 67 0 min 0 W/m 18,4 C 21,6 C 3,2 km/h (1 Bft)
20/06/2012 23:20 21,4 C 83 % 1009,7 hPa 0,0 mm 0,0 km/h (0 Bft) E-NE 67 0 min 0 W/m 18,4 C 21,4 C 0,0 km/h (0 Bft)
20/06/2012 23:30 21,2 C 83 % 1009,6 hPa 0,0 mm 0,4 km/h (0 Bft) E-SE 112 0 min 0 W/m 18,2 C 21,2 C 4,0 km/h (1 Bft)
20/06/2012 23:40 20,9 C 84 % 1009,5 hPa 0,0 mm 0,0 km/h (0 Bft) SE 135 0 min 0 W/m 18,1 C 20,9 C 0,0 km/h (0 Bft)
20/06/2012 23:50 20,8 C 85 % 1009,2 hPa 0,0 mm 0,0 km/h (0 Bft) E-SE 112 0 min 0 W/m 18,2 C 20,8 C 0,0 km/h (0 Bft)
_ Min-Heure 07:40 18:20 23:50 - 23:50 - - - - 07:00 07:40 23:50
Minimum _ 15,2 C 65 % 1009,2 hPa - 0,0 km/h (0 Bft) - - - - 14,0 C 15,2 C 0,0 km/h (0 Bft)
_ Max-Heure 17:20 09:30 01:20 23:50 12:40 - - 23:50 23:50 15:40 17:20 12:40
Maximum _ 27,9 C 93 % 1014,9 hPa 0,0 mm 5,8 km/h
NE (2 Bft)
- - 0 min 0 W/m 21,0 C 27,9 C 9,7 km/h
NE (2 Bft)
Moyenne _ 21,2 C 81 % 1012,8 hPa #0,0 mm 1,2 km/h (1 Bft) NE - #0 min. 0 W/m 17,6 C 21,2 C 2,3 km/h (1 Bft)
Saint Bonnet de Bellac- Haute Vienne - France